Regional Weather Roundup
Issued by NWS Lake Charles, LA

Home | Current Version | Previous Version | Text Only | Print | Product List | Glossary On
Versions: 1 2 3 4 5 6 7 8 9 10 11 12 13 14 15 16 17 18 19 20 21 22 23 24 25 26 27 28 29 30 31 32 33 34 35 36 37 38 39 40 41 42 43 44 45 46 47 48 49 50
000
ASUS44 KLCH 170410
RWRLCH
RWRLCH
REGIONAL WEATHER ROUNDUP
NATIONAL WEATHER SERVICE LAKE CHARLES LA
1100 PM CDT TUE SEP 16 2014

Note: "fair" indicates few or no clouds below 12,000 feet with no
significant weather and/or obstructions to visibility.


ACROSS SOUTHEAST TEXAS

CITY           SKY/WX    TMP DP  RH WIND       PRES   REMARKS
BEAUMONT       LGT RAIN  78  76  93 N3        30.02R
BEAUMONT CITY    N/A     74  74  97 CALM      30.03S
ORANGE         CLOUDY    76  76 100 CALM      30.04S
JASPER         CLOUDY    73  72  96 CALM      30.06S
$$

ACROSS CENTRAL LOUISIANA

CITY           SKY/WX    TMP DP  RH WIND       PRES   REMARKS
LEESVILLE      CLOUDY    73  72  94 E5        30.04F
FULLERTON      MOCLDY    75  72  90 CALM      30.02F
ALEXANDRIA INT MOCLDY    74  72  93 SW3       30.02F
ESLER FIELD    MOCLDY    74  71  91 W7        30.04F
DERIDDER       DRIZZLE   74  73  95 CALM      30.05F
OAKDALE        CLOUDY    73  72  95 CALM      30.04S FOG
OPELOUSAS        N/A     72  71  97 N5        30.03S
$$

ACROSS SOUTHWEST AND SOUTH CENTRAL LOUISIANA

CITY           SKY/WX    TMP DP  RH WIND       PRES   REMARKS
SULPHUR        CLOUDY    75  74  96 CALM      30.03F
LAKE CHARLES   CLOUDY    76  75  97 CALM      30.02F
CHENNAULT INT  CLOUDY    76  74  92 CALM      30.03F
CAMERON PHI    CLOUDY    77  75  94 NE3       30.05S
DEQUINCY         N/A     74  73  97 CALM      30.04S
JENNINGS         N/A     74  72  95 N5        30.03R
LAFAYETTE      CLOUDY    74  74 100 NW6       30.02S
NEW IBERIA     CLOUDY    74  73  97 CALM      30.02R
ABBEVILLE        N/A     72  71  97 CALM      30.01F
PATTERSON      CLOUDY    72  72 100 CALM      30.04S
SALT POINT       N/A     75  72  90 CALM      30.01S
$$

SELECTED SITES ACROSS THE REGION

CITY           SKY/WX    TMP DP  RH WIND       PRES   REMARKS
HOUSTON BUSH   CLOUDY    77  75  93 N6        30.02R
HOUSTON HOBBY  CLOUDY    78  76  93 CALM      30.01R
GALVESTON      CLOUDY    80  78  94 S6        30.02R
COLLEGE STAT   LGT RAIN  77  75  93 S6        30.02F
CONROE         CLOUDY    75  74  96 CALM      30.03F
HUNTSVILLE     CLOUDY    77  74  90 S3        30.02F
LUFKIN         MOCLDY    77  73  87 CALM      30.03S
SHREVEPORT     PTCLDY    78  71  79 CALM      30.02S
MONROE         MOCLDY    73  70  90 CALM      30.04R
NATCHEZ MS     PTCLDY    75  72  88 SW5       30.04S
BATON ROUGE    CLOUDY    74  72  93 NE3       30.03S
N.O. INTL ARPT CLOUDY    77  73  87 N8        30.02F
SLIDELL        CLOUDY    75  72  90 N3        30.03S
$$

MARINE REPORTS

STATION/POSITION TIME  TEMP    WIND        PRES    VSBY  WAVE
                       AIR SEA DIR/SP/G                  HT/PER
                 (UTC) (F)     (DEG/KT/KT) (MB)    (MI)  (FT/S)
BUOY 30 S HIGH I 0400   81 85  150/  6/  8 1015.8R         2/ 6
SEA RIM ST PARK  0400   79      30/  2/  3 1017.1R
PORT ARTHUR      0400      84   90/  4/  5 1016.6R
SABINE PASS N    0400   80 82   60/  2/  3 1016.6R
TEXAS POINT      0400   81 82  130/  2/  4 1016.6R
CALCASIEU PASS   0400   77 83   60/  5/  7 1017.6S
LK CHARLES BEACH 0400   76 84              1016.8F
MARSH ISLAND     NOT AVBL
FRESH WATER LOCK 0400   77 83   10/  2/  3 1015.8S
AMERADA PASS     0400   74 84  340/  4/  6 1016.5R
$$


USA.gov is the U.S. government's official web portal to all federal, state and local government web resources and services.